Location: Ashtead
(51.3000°N, 0.3000°W)
Time: 16:58:37
(UTC+00:00)

CZ-2C R/B - Pass Details

Date: 03 May 2025
Orbit: 781 x 868 km, 98.4° (Epoch: 12 May)

Event Time Altitude Azimuth Distance (km) Brightness Sun altitude
Exits shadow 02:29:24 18° 250° (WSW) 1,892 4.0 -15.3°
Maximum altitude 02:30:46 20° 271° (W) 1,800 4.1 -15.2°
Drops below altitude 10° 02:34:35 10° 317° (NW) 2,384 5.2 -14.8°
Sets 02:37:32 0° 335° (NNW) 3,307 6.1 -14.5°
